Location: Potawatomi Wildlife Park
(41.2308°N, 86.1050°W)
Time: 08:47:26
(UTC-04:00)

HST - Visible Passes

Search period start: 31 October 2014 00:00
Search period end: 09 November 2014 23:00
Orbit: 546 x 550 km, 28.5° (Epoch: 30 October)

Date Brightness Start Highest point End Pass type
(mag) Time Alt. Az. Time Alt. Az. Time Alt. Az.
31 Oct 3.2 20:05:01 10° SW 20:07:09 14° S 20:09:18 10° SSE visible
01 Nov 3.3 19:57:44 10° SW 19:59:40 13° S 20:01:36 10° SSE visible
02 Nov 3.4 18:50:37 10° SSW 18:52:10 12° S 18:53:43 10° SSE visible
03 Nov 3.6 18:43:54 10° SSW 18:44:39 10° SSW 18:45:23 10° S visible
